Torna al catalogo

STARLINK-36671

AttivoComunicazioniVLEO
NORAD 68967·PAYLOAD·🇺🇸 United States

Lanciato May 1, 2026 da Cape Canaveral Space Force Station

Loading…

Prossimi Passaggi (prossime 24 ore)

TLE

AggiornatoSource: CelesTrak SupGP

Epoca: Sep 14, 2026, 15:00 UTC

1 68967C 26099S   26257.62548611 -.00000820  00000+0 -24226-4 0  2575
2 68967  53.1574 103.1317 0001381  90.5699 280.7885 15.34400225    15

Traccia STARLINK-36671 in tempo reale con AllMySat

Download on the App Store